Location: Noverd
(38.0910°N, 121.6877°W)
Time: 18:46:51
(UTC+00:00)

ARIANE 5 R/B - Pass Details

Date: 13 February 2026
Orbit: 746 x 793 km, 98.8° (Epoch: 10 March)

Event Time Altitude Azimuth Distance (km) Brightness Sun altitude
Rises 14:23:06 0° 20° (NNE) 3,197 5.8 -7.7°
Reaches altitude 10° 14:25:29 10° 27° (NNE) 2,267 5.2 -7.2°
Maximum altitude 14:30:16 45° 100° (E) 1,004 3.8 -6.3°
Drops below altitude 10° 14:35:00 10° 173° (S) 2,258 5.2 -5.4°
Sets 14:37:23 0° 179° (S) 3,182 5.9 -4.9°
